Find Starlink 3256

NORAD ID: 50202 Int'l Des: 2021-125 Owner: SPXS Country: US Constellation: starlink operational
LEOCIRCULAR

Aktuelle Ansicht

3D-Globus wird geladen...

Über Starlink 3256

Beschreibung wird geladen...

Nächste Überflüge

Passes for default location (London). Set your location on the main map for personalized predictions.

Höhenverlauf

Loading altitude history...

Zweizeiliger Elementsatz

1 50202U 21125AY 26150.59477535 -.00001013 00000-0 -45561-4 0 9991
2 50202 53.1959 231.4215 0001317 95.3287 264.7856 15.08842871249093
Epoch: 30. Mai 2026 • Age: 23 hours

Aktueller Status

Höhe 543.1 km
Geschwindigkeit 7.59 km/s
Subsatellitenpunkt -12.13°S, 33.64°W
Startdatum 18. Dez. 2021
Alter 4.4 years
Typ internet

Technische Details

Klassifizierung Payload
Masse 290.00 kg
Trockenmasse 270.00 kg
Gesamtmasse 290.00 kg
Länge 0.20 m
Durchmesser 2.80 m
Spannweite 9.00 m
Form Box + pan
Hersteller SPXS
Bus-Typ Starlink
Phasenstatus In Orbit
Besitzer/Staat SPXS/US

Most Searched